This demonstration page uses our WeatherBlox Daily Observations layout. Learn more.

Left ArrowRight Arrow

Hourly Observations for May 10, 2022

Temp ( °F °C ) Dew Point ( °F °C ) Humidity (%) Winds ( mph kmh ) Pressure ( in mb ) Visibility ( mi km ) Precip ( " mm )
12:53 am 00:53 Cloudy 40 4.4 30 -1.1 68 68 SW 7 11 29.75 1008 10 16 0.00 0.00
1:53 am 01:53 Cloudy 40 4.4 30 -1.1 68 68 SW 7 11 29.76 1008 10 16 0.00 0.00
2:53 am 02:53 Cloudy 45 7.2 29 -1.7 54 54 W 22 35 29.75 1008 10 16 0.00 0.00
3:53 am 03:53 Cloudy 41 5 27 -2.8 57 57 SW 13 20 29.78 1008 10 16 0.00 0.00
4:53 am 04:53 Cloudy 41 5 25 -3.9 53 53 SW 17 28 29.79 1009 10 16 0.00 0.00
5:53 am 05:53 Cloudy 40 4.4 24 -4.4 53 53 SW 20 31 29.81 1009 10 16 0.00 0.00
6:53 am 06:53 Cloudy 42 5.6 25 -3.9 51 51 SW 18 30 29.83 1010 10 16 0.00 0.00
7:53 am 07:53 Partly Cloudy 45 7.2 25 -3.9 46 46 SW 21 33 29.85 1011 10 16 0.00 0.00
8:53 am 08:53 Sunny 50 10 26 -3.3 39 39 WSW 18 30 29.87 1012 10 16 0.00 0.00
9:53 am 09:53 Sunny 55 12.8 25 -3.9 31 31 WSW 18 30 29.88 1012 10 16 0.00 0.00
10:53 am 10:53 Sunny 57 13.9 22 -5.6 26 26 W 16 26 29.89 1012 10 16 0.00 0.00
11:53 am 11:53 Mostly Cloudy 59 15 23 -5 25 25 SW 23 37 29.89 1012 10 16 0.00 0.00
12:53 pm 12:53 Mostly Cloudy 61 16.1 20 -6.7 20 20 WSW 20 31 29.88 1012 10 16 0.00 0.00
1:53 pm 13:53 Mostly Cloudy 59 15 18 -7.8 20 20 WSW 15 24 29.88 1012 10 16 0.00 0.00
2:53 pm 14:53 Mostly Cloudy 61 16.1 17 -8.3 18 18 WSW 17 28 29.87 1012 10 16 0.00 0.00
3:53 pm 15:53 Partly Cloudy 63 17.2 17 -8.3 17 17 WSW 15 24 29.88 1012 10 16 0.00 0.00
4:53 pm 16:53 Mostly Cloudy 63 17.2 15 -9.4 15 15 W 21 33 29.90 1012 10 16 0.00 0.00
5:53 pm 17:53 Sunny 63 17.2 15 -9.4 15 15 SW 20 31 29.92 1013 10 16 0.00 0.00
6:53 pm 18:53 Sunny 59 15 14 -10 17 17 W 9 15 29.93 1014 10 16 0.00 0.00
7:53 pm 19:53 Sunny 58 14.4 15 -9.4 18 18 WSW 9 15 29.95 1014 10 16 0.00 0.00
8:53 pm 20:53 Clear 50 10 16 -8.9 26 26 WNW 7 11 29.99 1016 10 16 0.00 0.00
9:53 pm 21:53 Clear 41 5 15 -9.4 35 35 S 10 17 30.04 1017 10 16 0.00 0.00
10:53 pm 22:53 Clear 40 4.4 17 -8.3 40 40 S 10 17 30.06 1018 10 16 0.00 0.00
11:53 pm 23:53 Clear 39 3.9 18 -7.8 43 43 SW 12 19 30.07 1018 10 16 0.00 0.00

Powered by AerisWeather